STARLINK-33984, 63830

Orbit data source: Space-Track

STARLINK-33984, 63830 is a payload satellite owned by SpaceX/Seattle (US) in LEO that was launched on Sun, 04 May 2025 UTC via an FALCON 9 launch vehicle from the Air Force Eastern Test Range (AFETR). Payload-class satellites include a variety of spacecraft equipped with specific instruments for various scientific and technological missions. These include communications satellites like Starlink; space stations such as the ISS; scientific satellites like the Hubble; Earth observation satellites from companies like Planet Labs, Umbra, and HawkEye 360; GPS; miniature CubeSats for education and research; and military/defense satellites.

Loading next visibility...
Identifier
63830, 2025-092AC
Orbit
LEO
Last TLE update
9 hours ago
Origin
Manufacturer
SpaceX/Seattle
Mission
Operational Commercial Communications
Bus & Motor
STARLINK V2MO, Unknown motor
Mass
575 kg wet, ~530 kg dry
Launch date (UTC)
2025-05-04 (2 months ago)
Launch vehicle
FALCON 9
Launch site
Air Force Eastern Test Range (AFETR)
Object type
Payload
Rocket body
Debris
Shape & HBR
Box + 1 Pan, 29 m
Radar Cross Section
41.120 m², Large (>1 m²)

Expand to show TLE details & history

TLE from 9 hours ago
0 STARLINK-33984
1 63830U 25092AC  25192.13902110  .00021705  00000-0  79541-3 0  9998
2 63830  43.0014  96.5967 0002334 263.6435  96.4151 15.27600687 11669
Epoch: 2025-07-11T03:20Z
TLE epoch observation values (Epoch: 2025-07-11T03:20:11.423Z)
Latitude
0.00001°
Longitude
117.25387°
Altitude
482.942 km
Speed
7.626 km/s
True Right ascension
06h 26m 23s
True Declination
0° 00' 00"
Sunlit
Object was in daylight at epoch
Visualization orbit readout
Latitude
-20.06472°
Longitude
-41.88531°
Altitude
486.499 km
Speed
7.623 km/s
Apparent Right ascension
16h 52m 17s
Apparent Declination
-44° 31' 46"
Sunlit
Object is in full shadow
Visualization observer readout
Local Sidereal Time
00:24:00
Azimuth
241.286° WSW
Elevation
-41.529°
Doppler factor
1
Orbital elements
Apogee altitude
486.534 km
Perigee altitude
483.33 km
Semi-major axis
6,863.069 km
Eccentricity
0.00023
Inclination
43.0014°
RAAN
96.5967°
Arg. of periapsis
263.6435°
True anomaly
Unknown
Mean anomaly
96.4151°
Eccentric anomaly
Unknown
Mean motion
3.81738 °/min
Orbital period
94.31 mins
BSTAR
0.00079541
Loading maneuver chart data...
Loading SW <> Apogee altitude chart data...
Loading historical data...
Loading historical data...
Loading historical data...
Loading historical data...
Loading historical data...
Loading historical data...
Loading historical data...

STARLINK-33984 Visibility forecast

Observer location: undefined°, undefined°

Span
Click to sort rows by Start time (UTC) header in descending order
Start Az.
Max El. time (UTC)
Max El. Az.
Max El.
End time (UTC)
End Az.
6 mins2025-07-11 20:47:51.846Z212.161° SW2025-07-11 20:50:51.846Z148.15° SSE29.147°2025-07-11 20:53:51.846Z86.487° E
5 mins2025-07-11 22:27:51.846Z267.887° W2025-07-11 22:29:51.846Z17.474° NNE42.804°2025-07-11 22:32:51.846Z69.888° E
5 mins2025-07-12 00:06:51.846Z296.435° NW2025-07-12 00:08:51.846Z6.547° NNE38.493°2025-07-12 00:11:51.846Z79.421° E
5 mins2025-07-12 01:45:51.846Z283.003° WNW2025-07-12 01:47:51.846Z209.253° SW44.001°2025-07-12 01:50:51.846Z117.552° SE
|